MOLNIYA 3-41

Last updated on Nov. 11, 2019, 4:17 a.m. UTC

1 21706U 91065A   19314.43176396  .00001087  00000-0 -26505-1 0  9990
2 21706  64.2559 265.9970 6839773 266.8345 267.7422  2.04346855207493
UTC
Height (km)
Latitude
Longitude
Inclination
Orbital Period
UTC large
Height (km)
Speed (km/s)
/
Latitude / Longitude
Inclination (degrees)
Orbital Period (minutes)
Azimuth
Elevation
Range (km)
Doppler Factor
iOS Compass Heading
iOS Angle

Next 30 passes for location: Hong Kong

Rise time Rise Azimuth (degrees) Set time Set Azimuth (degrees) Duration Max altitude (degrees)

No matching passes for this satellites